Home   Weather   Almería   Past weeks

Flag for Spain Past Weather in Almería, Spain — Yesterday and Last 2 Weeks

Now
62 °F

Refreshingly cool.


Feels Like: 62 °F
Forecast: 55 / 69 °F
Wind: 8 mph from Northwest

Location: Almeria / Aeropuerto

Current Time: Apr 23, 2017 at 10:14:24 am

Latest Report: Apr 23, 2017 at 9:00 am


Visibility: N/A

Pressure: 30.07 "Hg

Humidity: 51%

Dew Point: 44 °F

Location of AlmeríaLocation

Past Weather in Almería — Graph

°F

Almería Temperature Yesterday

Maximum temperature yesterday: 73 °F (at 4:00 pm)
Minimum temperature yesterday: 60 °F (at 2:00 am)
Average temperature yesterday: 64 °F

High & Low Weather Summary for the Past Weeks

 TemperatureHumidityPressure
High82 °F (Apr 18, 5:00 pm)98% (Apr 15, 8:00 am)30.26 "Hg (Apr 15, 8:00 am)
Low51 °F (Apr 11, 7:00 am)23% (Apr 18, 7:00 pm)29.84 "Hg (Apr 18, 6:00 pm)
Average64 °F64%30.10 "Hg
* Reported Apr 8 8:00 am — Apr 23 8:00 am, Almería, Weather by CustomWeather, © 2017

Note: Actual official high and low records may vary slightly from our data, if they occured in-between our weather recording intervals... More about our weather records

Advertising

Almería Weather History for the Previous 24 Hours

Scroll right to see more
 ConditionsComfort  
Time TempWeatherWind HumidityBarometerVisibility
8:00 am
Sun, Apr 23
60 °FRefreshingly cool.10 mph53%30.06 "HgN/A
7:00 am59 °FRefreshingly cool.12 mph54%30.04 "HgN/A
6:00 am59 °FRefreshingly cool.10 mph56%30.04 "HgN/A
5:00 am59 °FPassing clouds.9 mph59%30.06 "Hg25 mi
4:00 am60 °FCool.8 mph60%30.07 "HgN/A
3:00 am60 °FCool.6 mph67%30.08 "HgN/A
2:00 am58 °FCool.3 mph74%30.10 "HgN/A
1:00 am60 °FCool.5 mph70%30.10 "HgN/A
12:00 am61 °FCool.7 mph68%30.11 "HgN/A
11:00 pm
Sat, Apr 22
61 °FCool.9 mph69%30.10 "HgN/A
10:00 pm63 °FMild.12 mph63%30.08 "HgN/A
9:00 pm65 °FMild.18 mph58%30.06 "HgN/A
8:00 pm69 °FScattered clouds.21 mph47%30.05 "Hg31 mi
7:00 pm71 °FMild.20 mph39%30.07 "HgN/A
6:00 pm71 °FMild.18 mph40%30.09 "HgN/A
5:00 pm73 °FPartly sunny.21 mph39%30.10 "Hg31 mi
4:00 pm73 °FMild.23 mph38%30.13 "HgN/A
3:00 pm71 °FMild.21 mph42%30.16 "HgN/A
2:00 pm67 °FOvercast.22 mph47%30.18 "Hg31 mi
1:00 pm67 °FMild.24 mph44%30.19 "HgN/A
12:00 pm64 °FMild.23 mph47%30.20 "HgN/A
11:00 am63 °FOvercast.16 mph49%30.20 "Hg31 mi
10:00 am64 °FMild.15 mph48%30.20 "HgN/A
Weather by CustomWeather, © 2017

See weather overviewHow to use our weather pages